Glens Falls, NY

9:34 AM EDT on October 14, 2019 (GMT -0400)
Bennett Memorial

Weather History for KGFL - August, 2019

Change the Weather History Date:

Saturday, August 17, 2019

  Actual Average Record
Temperature  
Mean Temperature 73 °F 67 °F  
Max Temperature 84 °F 79 °F 93 °F (1987)
Min Temperature 62 °F 55 °F 41 °F (1979)
Degree Days  
Heating Degree Days 0 1  
Month to date heating degree days 5 17  
Since 1 June heating degree days 75 128  
Since 1 July heating degree days 5 38  
Cooling Degree Days 8 3  
Month to date cooling degree days 68 67  
Year to date cooling degree days 364 287  
Since 1 June cooling degree days 355 275  
Growing Degree Days 22 (Base 50)    
Moisture  
Dew Point 66 °F    
Average Humidity 82    
Maximum Humidity 100    
Minimum Humidity 63    
Precipitation  
Precipitation 0.85 in 0.13 in 1.54 in (1943)
Month to date precipitation 2.26 2.18  
Year to date precipitation 28.20 24.31  
Sea Level Pressure  
Sea Level Pressure 29.99 in    
Wind  
Wind Speed 5 mph (SSW)    
Max Wind Speed 25 mph    
Max Gust Speed 34 mph    
Visibility 7 miles    
Events Fog , Rain , Thunderstorm    
T = Trace of Precipitation, MM = Missing Value Source: NWS Daily Summary

Daily Weather History Graph

Daily Weather History Graph

Search for Another Location

Airport or City:

Astronomy

Aug. 17, 2019 Rise Set
Actual Time 6:01 AM EDT 7:54 PM EDT
Civil Twilight 5:30 AM EDT 8:25 PM EDT
Nautical Twilight 4:53 AM EDT 9:02 PM EDT
Astronomical Twilight 4:12 AM EDT 9:43 PM EDT
Moon 9:18 PM EDT (8/17) 7:49 AM EDT (8/17)
Length of Visible Light 14h 54m
Length of Day
13h 53m
Waning Gibbous, 96% of the Moon is Illuminated
Aug 17
Waning Gibbous
Aug 23
Last Quarter
Aug 30
New
Sep 5
First Quarter
Sep 14
Full

Hourly Weather History & Observations

Time (EDT) Temp. Heat Index Dew Point Humidity Pressure Visibility Wind Dir Wind Speed Gust Speed Precip Events Conditions
12:39 AM 66.9 °F - 66.0 °F 97% 30.00 in 5.0 mi Calm Calm - 0.01 in   Overcast
12:53 AM 68.0 °F - 66.9 °F 96% 30.00 in 6.0 mi Calm Calm - 0.01 in   Overcast
1:23 AM 69.1 °F - 66.9 °F 93% 30.01 in 10.0 mi Calm Calm - N/A   Mostly Cloudy
1:53 AM 68.0 °F - 66.0 °F 93% 30.01 in 10.0 mi South 4.6 mph - N/A   Partly Cloudy
2:53 AM 69.1 °F - 66.9 °F 93% 30.00 in 10.0 mi Calm Calm - 0.04 in Rain Light Rain
3:09 AM 69.1 °F - 66.9 °F 93% 30.00 in 10.0 mi South 5.8 mph - 0.01 in   Overcast
3:16 AM 69.1 °F - 66.9 °F 93% 30.01 in 4.0 mi South 4.6 mph - 0.05 in   Overcast
3:25 AM 70.0 °F - 66.9 °F 90% 30.00 in 2.5 mi South 5.8 mph - 0.07 in Rain Rain
3:32 AM 69.1 °F - 66.9 °F 93% 30.00 in 8.0 mi SSW 6.9 mph - 0.07 in Rain Light Rain
3:53 AM 69.1 °F - 66.9 °F 93% 29.99 in 9.0 mi South 5.8 mph - 0.07 in   Partly Cloudy
4:27 AM 69.1 °F - 66.9 °F 93% 30.00 in 9.0 mi SSW 3.5 mph - N/A   Mostly Cloudy
4:53 AM 69.1 °F - 66.9 °F 93% 30.00 in 8.0 mi SSW 4.6 mph - N/A   Overcast
5:15 AM 69.1 °F - 66.9 °F 93% 30.01 in 7.0 mi SSW 5.8 mph - N/A   Overcast
5:53 AM 69.1 °F - 66.9 °F 93% 30.01 in 9.0 mi SSW 4.6 mph - N/A   Overcast
6:24 AM 69.1 °F - 66.9 °F 93% 30.00 in 8.0 mi South 4.6 mph - N/A   Overcast
6:53 AM 70.0 °F - 66.9 °F 90% 30.00 in 8.0 mi Calm Calm - N/A   Overcast
7:44 AM 70.0 °F - 68.0 °F 93% 30.01 in 7.0 mi SW 4.6 mph - N/A   Overcast
7:53 AM 70.0 °F - 68.0 °F 93% 30.01 in 6.0 mi SW 4.6 mph - N/A   Overcast
8:08 AM 70.0 °F - 68.0 °F 93% 30.02 in 6.0 mi SSW 5.8 mph - N/A   Overcast
8:12 AM 70.0 °F - 68.0 °F 93% 30.02 in 7.0 mi SW 4.6 mph - N/A   Overcast
8:53 AM 72.0 °F - 68.0 °F 87% 30.01 in 10.0 mi South 6.9 mph - N/A   Overcast
9:01 AM 72.0 °F - 68.0 °F 87% 30.02 in 10.0 mi SSW 5.8 mph - N/A   Overcast
9:27 AM 72.0 °F - 68.0 °F 87% 30.01 in 10.0 mi South 8.1 mph - N/A   Overcast
9:53 AM 72.0 °F - 68.0 °F 87% 30.01 in 10.0 mi South 4.6 mph - N/A   Overcast
10:06 AM 73.0 °F - 69.1 °F 87% 30.01 in 10.0 mi South 5.8 mph - N/A   Overcast
10:17 AM 73.0 °F - 68.0 °F 84% 30.01 in 10.0 mi SSW 4.6 mph - N/A   Overcast
10:53 AM 73.9 °F - 68.0 °F 82% 30.01 in 10.0 mi SSW 8.1 mph - N/A   Overcast
11:15 AM 75.0 °F - 69.1 °F 82% 30.01 in 10.0 mi South 6.9 mph - N/A   Overcast
11:53 AM 75.9 °F - 68.0 °F 76% 30.00 in 10.0 mi South 5.8 mph - N/A   Mostly Cloudy
12:24 PM 78.1 °F - 69.1 °F 74% 30.00 in 10.0 mi South 8.1 mph - N/A   Mostly Cloudy
12:41 PM 78.1 °F - 69.1 °F 74% 30.00 in 10.0 mi South 6.9 mph - N/A   Mostly Cloudy
12:53 PM 80.1 °F 82.7 °F 68.0 °F 67% 29.99 in 10.0 mi South 8.1 mph - N/A   Scattered Clouds
1:53 PM 81.0 °F 83.8 °F 68.0 °F 65% 29.98 in 10.0 mi SSE 8.1 mph - N/A   Scattered Clouds
2:53 PM 82.9 °F 85.8 °F 68.0 °F 60% 29.95 in 10.0 mi South 9.2 mph - N/A   Partly Cloudy
3:53 PM 82.0 °F 85.5 °F 69.1 °F 65% 29.92 in 10.0 mi South 6.9 mph - N/A   Partly Cloudy
4:53 PM 80.1 °F 82.9 °F 69.1 °F 69% 29.91 in 10.0 mi West 3.5 mph - N/A   Clear
5:18 PM 79.0 °F - 69.1 °F 72% 29.93 in 10.0 mi NW 5.8 mph - 0.00 in Rain , Thunderstorm Light Rain
5:39 PM 69.1 °F - 64.9 °F 87% 29.98 in 1.8 mi WNW 24.2 mph 34.5 mph 0.33 in Rain , Thunderstorm Heavy Thunderstorms and Rain
5:53 PM 68.0 °F - 64.9 °F 90% 29.97 in 2.5 mi NW 11.5 mph 21.9 mph 0.64 in Rain , Thunderstorm Thunderstorms and Rain
6:00 PM 68.0 °F - 64.9 °F 90% 29.98 in 5.0 mi NW 5.8 mph - 0.02 in Rain , Thunderstorm Thunderstorms and Rain
6:15 PM 68.0 °F - 64.9 °F 90% 29.97 in 7.0 mi NNE 4.6 mph - 0.05 in Rain , Thunderstorm Rain
6:25 PM 68.0 °F - 66.0 °F 93% 29.97 in 8.0 mi Calm Calm - 0.07 in Rain Light Rain
6:53 PM 66.9 °F - 66.0 °F 97% 29.98 in 9.0 mi South 5.8 mph - 0.10 in Rain Light Rain
7:53 PM 66.9 °F - 66.0 °F 97% 29.96 in 10.0 mi Calm Calm - 0.00 in   Partly Cloudy
8:53 PM 66.0 °F - 64.9 °F 96% 29.96 in 7.0 mi SW 4.6 mph - N/A   Clear
9:22 PM 64.9 °F - 64.0 °F 97% 29.97 in 1.8 mi Calm Calm - N/A   Clear
9:25 PM 64.9 °F - 64.0 °F 97% 29.97 in 0.8 mi Calm Calm - N/A   Mist
9:33 PM 66.0 °F - 64.9 °F 96% 29.98 in 1.2 mi West 3.5 mph - N/A   Partly Cloudy
9:43 PM 64.9 °F - 64.0 °F 97% 29.98 in 1.5 mi Calm Calm - N/A   Partly Cloudy
9:53 PM 64.9 °F - 63.0 °F 93% 29.97 in 1.8 mi Calm Calm - N/A   Partly Cloudy
10:02 PM 64.0 °F - 63.0 °F 96% 29.98 in 0.2 mi Calm Calm - N/A Fog Fog
10:42 PM 64.0 °F - 64.0 °F 100% 29.98 in 0.5 mi Calm Calm - N/A Fog Fog
10:53 PM 62.1 °F - 61.0 °F 96% 29.99 in 0.2 mi Calm Calm - N/A Fog Fog
11:10 PM 64.0 °F - 63.0 °F 96% 29.99 in 1.2 mi Calm Calm - N/A   Overcast
11:12 PM 64.0 °F - 63.0 °F 96% 30.00 in 2.0 mi Calm Calm - N/A   Overcast
11:25 PM 63.0 °F - 62.1 °F 97% 30.00 in 1.0 mi SSW 3.5 mph - N/A   Overcast
11:32 PM 64.0 °F - 63.0 °F 96% 30.00 in 3.0 mi Calm Calm - N/A   Overcast
11:53 PM 64.9 °F - 64.0 °F 97% 30.00 in 7.0 mi Calm Calm - N/A   Overcast